Booneville, Arkansas, United States (72927)
Lat: 35.14N, Lon: 93.92W
Wx Zone: ARZ030
Local Info
Past Weather Observations for Today

NOTE: This archive is for the closest National Weather Service station to Booneville. Information may differ from the station used for current weather conditions.

Click here for Long-term Archive

Time Weather Temperature Dewpoint Humidity Pressure Winds Precip Visibility
11:53
Overcast
39°F / 4°C 36°F / 2°C 87% 30.21 in
(1023 mb)
ENE 8.1 mph
(ENE 13 kph)
- 9SM
10:53
Overcast
39°F / 4°C 36°F / 2°C 87% 30.24 in
(1024 mb)
E 8.1 mph
(E 13 kph)
- 8SM
09:53
Overcast
37°F / 3°C 36°F / 2°C 93% 30.24 in
(1024 mb)
E 9.2 mph
(E 15 kph)
- 7SM
09:05
Overcast
Fog And Mist
37°F / 3°C 36°F / 2°C 93% 30.24 in
(1024 mb)
E 11.5 mph
(E 19 kph)
- 6SM
08:53
Overcast
Fog And Mist
37°F / 3°C 34°F / 1°C 87% 30.21 in
(1023 mb)
E 10.4 mph
(E 17 kph)
- 5SM
08:12
Overcast
Fog And Mist
37°F / 3°C 36°F / 2°C 93% 30.21 in
(1023 mb)
ENE 8.1 mph
(ENE 13 kph)
- 4SM
07:53
Overcast
Fog And Mist
37°F / 3°C 36°F / 2°C 93% 30.21 in
(1023 mb)
E 9.2 mph
(E 15 kph)
- 5SM
06:53
Overcast
Fog And Mist
37°F / 3°C 36°F / 2°C 93% 30.21 in
(1023 mb)
E 6.9 mph
(E 11 kph)
- 4SM
06:14
Overcast
Fog And Mist
37°F / 3°C 36°F / 2°C 93% 30.18 in
(1022 mb)
E 9.2 mph
(E 15 kph)
- 5SM
06:06
Overcast
Fog And Mist
37°F / 3°C 36°F / 2°C 93% 30.18 in
(1022 mb)
E 8.1 mph
(E 13 kph)
- 5SM
05:53
Overcast
Fog And Mist
37°F / 3°C 36°F / 2°C 93% 30.18 in
(1022 mb)
ENE 9.2 mph
(ENE 15 kph)
- 4SM
05:39
Overcast
Fog And Mist
37°F / 3°C 36°F / 2°C 93% 30.18 in
(1022 mb)
E 9.2 mph
(E 15 kph)
- 4SM
04:53
Overcast
Fog And Mist
37°F / 3°C 36°F / 2°C 93% 30.18 in
(1022 mb)
E 9.2 mph
(E 15 kph)
- 5SM
03:53
Overcast
37°F / 3°C 34°F / 1°C 87% 30.18 in
(1022 mb)
ENE 9.2 mph
(ENE 15 kph)
- 8SM
03:38
Overcast
37°F / 3°C 34°F / 1°C 87% 30.18 in
(1022 mb)
ENE 9.2 mph
(ENE 15 kph)
- 7SM
02:53
Overcast
37°F / 3°C 34°F / 1°C 87% 30.18 in
(1022 mb)
E 9.2 mph
(E 15 kph)
- 10SM
02:39
Overcast
37°F / 3°C 34°F / 1°C 87% 30.18 in
(1022 mb)
E 8.1 mph
(E 13 kph)
- 10SM
01:53
Overcast
37°F / 3°C 34°F / 1°C 87% 30.21 in
(1023 mb)
E 9.2 mph
(E 15 kph)
- 10SM
01:07
Overcast
37°F / 3°C 34°F / 1°C 87% 30.21 in
(1023 mb)
ENE 9.2 mph
(ENE 15 kph)
- 10SM
00:53
Overcast
37°F / 3°C 34°F / 1°C 87% 30.21 in
(1023 mb)
ENE 10.4 mph
(ENE 17 kph)
- 10SM
Time Weather Temperature Dewpoint Humidity Pressure Winds Precip Visibility


Weather for websites

WeatherForYou.com, LLC is not responsible for any damages or problems caused by this service. Current weather conditions are obtained from the closest station including government and personal stations which may have varying degrees of accuracy. Weather forecasts are derived from the NOAA NDFD. Like all things, this site belongs to Jesus Christ... He just trusts me to maintain it. If you have any questions or comments email webmaster@weatherforyou.com

Copyright © 2014, WeatherForYou.com LLC. All rights reserved.